Regional Weather Roundup
Issued by NWS

Home | Current Version | Previous Version | Text Only | Print | Product List | Glossary On
Versions: 1 2 3 4 5 6 7 8 9 10 11 12 13 14 15 16 17 18 19 20 21 22 23 24 25 26 27 28 29 30 31 32 33 34 35 36 37 38 39 40 41 42 43 44 45 46 47 48 49 50
000
ASUS45 KCYS 300010
RWRWY

WYOMING REGIONAL WEATHER ROUNDUP
NATIONAL WEATHER SERVICE CHEYENNE WY
600 PM MDT SUN MAR 29 2015

NOTE:  "FAIR" INDICATES FEW OR NO CLOUDS BELOW 12,000 FEET
WITH NO SIGNIFICANT WEATHER AND/OR OBSTRUCTIONS TO VISIBILITY.

WYZ001-300100-
YELLOWSTONE NATIONAL PARK

CITY           SKY/WX    TMP DP  RH WIND       PRES   REMARKS
LK YELLOWSTONE   N/A     45   8  22 W6        30.25F
6HR MIN TEMP:  37; 6HR MAX TEMP:  47;

W YELLOWSTONE  NOT AVBL

$$
WYZ002>013-054>058-071-098>099-300100-
NORTHERN WYOMING

CITY           SKY/WX    TMP DP  RH WIND       PRES   REMARKS
JACKSON        SUNNY     52  18  25 VRB7      30.22F
CODY           FAIR      61  16  17 W17G24    30.08S
GREYBULL       FAIR      62  17  17 S7        30.06F
6HR MIN TEMP:  56; 6HR MAX TEMP:  64;

WORLAND        FAIR      62  20  19 VRB3      30.08S
6HR MIN TEMP:  56; 6HR MAX TEMP:  63;

SHERIDAN       FAIR      58  28  32 CALM      30.06F
6HR MIN TEMP:  54; 6HR MAX TEMP:  62;

BUFFALO        FAIR      55  25  31 N5        30.10F
6HR MIN TEMP:  53; 6HR MAX TEMP:  60;

GILLETTE       FAIR      57  23  26 N13       30.07F
6HR MIN TEMP:  53; 6HR MAX TEMP:  62;

HULETT         FAIR      57  25  28 W10       30.08F
NEWCASTLE      FAIR      59  19  21 NW5       30.07F

$$
WYZ014>020-022>026-101>103-300100-
CENTRAL WYOMING

CITY           SKY/WX    TMP DP  RH WIND       PRES   REMARKS
BIG PINEY      FAIR      58   4  11 NW14      30.23S
6HR MIN TEMP:  47; 6HR MAX TEMP:  60;

PINEDALE       CLOUDY    52   9  17 NW14      30.25F
DUBOIS         FAIR      52   9  17 NW14      30.19S
LANDER         FAIR      63  13  14 CALM      30.10S
6HR MIN TEMP:  52; 6HR MAX TEMP:  65;

RIVERTON       FAIR      64   9  11 NW16      30.10S
6HR MIN TEMP:  52; 6HR MAX TEMP:  67;

CASPER         FAIR      62   1   8 NW14      30.10R
6HR MIN TEMP:  54; 6HR MAX TEMP:  66;

DOUGLAS        FAIR      62  12  14 W12       30.09F
6HR MIN TEMP:  54; 6HR MAX TEMP:  64;


$$
WYZ021-027>030-104>119-300100-
SOUTHERN WYOMING

CITY           SKY/WX    TMP DP  RH WIND       PRES   REMARKS
EVANSTON       FAIR      58  15  18 W17       30.26S
6HR MIN TEMP:  51; 6HR MAX TEMP:  61;

KEMMERER       FAIR      54   9  16 W21G26    30.26R
FORT BRIDGER   FAIR      62  12  14 W18G28    30.27R
ROCK SPRINGS   FAIR      59  12  15 W16       30.20F
6HR MIN TEMP:  48; 6HR MAX TEMP:  60;

DIXON          FAIR      63  15  15 W9        30.22F
RAWLINS        FAIR      59   7  12 W24G32    30.17S
6HR MIN TEMP:  52; 6HR MAX TEMP:  62;

SARATOGA       FAIR      59  12  15 W16G24    30.21S
LARAMIE        FAIR      56   5  13 W14       30.17R
6HR MIN TEMP:  48; 6HR MAX TEMP:  61;

CHEYENNE       FAIR      59  19  21 S15G23    30.16S
6HR MIN TEMP:  53; 6HR MAX TEMP:  62;

TORRINGTON     FAIR      61  21  21 SE8       30.09S
6HR MIN TEMP:  56; 6HR MAX TEMP:  65;

PINE BLUFFS    FAIR      61  21  21 S9        30.14F

$$


USA.gov is the U.S. government's official web portal to all federal, state and local government web resources and services.